TimeMDT,TemperatureF,Dew PointF,Humidity,Sea Level PressureIn,VisibilityMPH,Wind Direction,Wind SpeedMPH,Gust SpeedMPH,PrecipitationIn,Events,Conditions,WindDirDegrees,DateUTC
12:15 AM,62.6,26.6,26,29.68,10.0,SSW,13.8,-,N/A,,Clear,200,2013-04-30 06:15:00
12:35 AM,64.4,24.8,22,29.68,10.0,SSW,12.7,-,N/A,,Clear,210,2013-04-30 06:35:00
12:55 AM,66.2,23.0,19,29.68,10.0,SSW,11.5,-,N/A,,Clear,200,2013-04-30 06:55:00
1:14 AM,62.6,24.8,24,29.69,10.0,SSW,9.2,-,N/A,,Clear,210,2013-04-30 07:14:00
1:34 AM,64.4,23.0,21,29.68,10.0,SSW,12.7,-,N/A,,Clear,210,2013-04-30 07:34:00
1:54 AM,64.4,23.0,21,29.68,10.0,SSW,11.5,-,N/A,,Clear,210,2013-04-30 07:54:00
2:14 AM,55.4,30.2,38,29.69,10.0,West,10.4,-,N/A,,Clear,260,2013-04-30 08:14:00
2:35 AM,57.2,28.4,33,29.68,10.0,WSW,11.5,-,N/A,,Clear,240,2013-04-30 08:35:00
2:55 AM,59.0,26.6,29,29.68,10.0,SW,9.2,-,N/A,,Clear,220,2013-04-30 08:55:00
3:14 AM,53.6,30.2,41,29.69,10.0,NE,8.1,-,N/A,,Clear,50,2013-04-30 09:14:00
3:35 AM,53.6,30.2,41,29.69,10.0,Calm,Calm,-,N/A,,Clear,0,2013-04-30 09:35:00
3:55 AM,51.8,30.2,44,29.69,10.0,SSE,8.1,-,N/A,,Clear,160,2013-04-30 09:55:00
4:15 AM,53.6,30.2,41,29.69,10.0,SE,8.1,-,N/A,,Clear,140,2013-04-30 10:15:00
4:34 AM,53.6,32.0,44,29.70,10.0,SSE,5.8,-,N/A,,Clear,160,2013-04-30 10:34:00
4:55 AM,55.4,32.0,41,29.71,10.0,ESE,5.8,-,N/A,,Clear,120,2013-04-30 10:55:00
5:15 AM,51.8,35.6,54,29.74,10.0,NNE,19.6,32.2,N/A,,Clear,20,2013-04-30 11:15:00
5:35 AM,44.6,35.6,71,29.76,10.0,NE,17.3,21.9,N/A,,Clear,50,2013-04-30 11:35:00
5:55 AM,42.8,33.8,70,29.76,10.0,NE,23.0,29.9,N/A,,Clear,50,2013-04-30 11:55:00
6:15 AM,42.8,33.8,70,29.78,10.0,ENE,17.3,25.3,N/A,,Clear,60,2013-04-30 12:15:00
6:34 AM,41.0,33.8,76,29.79,10.0,ENE,12.7,18.4,N/A,,Clear,70,2013-04-30 12:34:00
6:52 AM,41.0,35.6,81,29.81,10.0,ENE,12.7,-,N/A,,Clear,60,2013-04-30 12:52:00
7:50 AM,44.6,37.4,76,29.86,40.0,NNE,6.9,-,N/A,,Mostly Cloudy,20,2013-04-30 13:50:00
8:48 AM,44.6,37.4,76,29.86,50.0,ESE,8.1,-,N/A,,Mostly Cloudy,110,2013-04-30 14:48:00
9:50 AM,48.2,37.4,66,29.85,50.0,East,4.6,-,N/A,,Mostly Cloudy,100,2013-04-30 15:50:00
10:48 AM,50.0,39.2,66,29.85,40.0,East,9.2,-,N/A,,Mostly Cloudy,80,2013-04-30 16:48:00
11:50 AM,50.0,39.2,66,29.83,40.0,ENE,9.2,-,N/A,,Mostly Cloudy,70,2013-04-30 17:50:00
12:53 PM,53.6,39.2,58,29.84,40.0,NE,8.1,-,N/A,,Mostly Cloudy,50,2013-04-30 18:53:00
1:50 PM,57.2,39.2,51,29.82,40.0,NE,11.5,18.4,N/A,,Mostly Cloudy,50,2013-04-30 19:50:00
2:50 PM,57.2,39.2,51,29.81,40.0,NE,15.0,21.9,N/A,,Mostly Cloudy,50,2013-04-30 20:50:00
3:55 PM,59.0,37.4,45,29.83,40.0,NE,18.4,21.9,N/A,,Mostly Cloudy,50,2013-04-30 21:55:00
4:50 PM,55.4,35.6,47,29.83,40.0,NNE,13.8,-,N/A,,Mostly Cloudy,30,2013-04-30 22:50:00
5:55 PM,57.2,37.4,48,29.82,40.0,NE,17.3,-,N/A,,Mostly Cloudy,40,2013-04-30 23:55:00
6:55 PM,53.6,35.6,51,29.84,40.0,North,10.4,-,N/A,,Mostly Cloudy,10,2013-05-01 00:55:00
7:55 PM,50.0,35.6,58,29.87,40.0,North,13.8,-,N/A,,Mostly Cloudy,10,2013-05-01 01:55:00
8:55 PM,50.0,33.8,54,29.92,10.0,NNE,15.0,20.7,N/A,,Overcast,20,2013-05-01 02:55:00
9:15 PM,50.0,33.8,54,29.95,10.0,North,27.6,33.4,N/A,,Overcast,360,2013-05-01 03:15:00
9:35 PM,41.0,35.6,81,29.97,10.0,North,23.0,31.1,N/A,,Overcast,10,2013-05-01 03:35:00
9:55 PM,41.0,35.6,81,29.98,10.0,North,21.9,26.5,N/A,,Overcast,10,2013-05-01 03:55:00
10:15 PM,41.0,35.6,81,29.99,10.0,NNE,20.7,-,N/A,,Overcast,20,2013-05-01 04:15:00
10:35 PM,41.0,35.6,81,30.00,10.0,North,17.3,24.2,N/A,,Overcast,10,2013-05-01 04:35:00
10:55 PM,41.0,35.6,81,30.02,10.0,North,15.0,-,N/A,,Overcast,10,2013-05-01 04:55:00
11:15 PM,41.0,35.6,81,30.02,10.0,NNE,12.7,-,N/A,,Overcast,20,2013-05-01 05:15:00
11:35 PM,41.0,35.6,81,30.04,10.0,NNE,9.2,18.4,N/A,,Overcast,20,2013-05-01 05:35:00
11:55 PM,39.2,35.6,87,30.04,10.0,NE,8.1,-,N/A,,Overcast,40,2013-05-01 05:55:00